Notices

What's New in latest Release from April 7th, 2021:

- Updated Glossary, including Speed of Maximum Gust, and Total Hourly Precipitation

- Updated national and regional climate services offices contacts and prices information

- Addition of station inventory lists for 1981-2010, 1971-2000, and 1961-1990 Normals.

If you haven't already, please take our survey and provide feedback about our website: https://eccc.sondage-survey.ca/f/LanguageSelection.aspx?s=442ca660-fcf1-47c0-95a9-59707d6fd709

Hourly Data Report for October 01, 2019

PINAWA
MANITOBA
Current Station Operator: ECCC - MSC

50°10'38.020" N
96°03'53.000" W
268.00 m
503B1ER
71448
WEA

Download Data

Hourly Data (October 2019)
Hourly Data Report for October 1, 2019
TIME
LST
Temp Definition
°C
Dew Point Definition
°C
Rel Hum Definition
%
Precip. Amount Definition
mm

Wind Dir Definition
10's deg

Wind Spd Definition
km/h
Visibility Definition
km
Stn Press Definition
kPa
Hmdx Definition


Wind Chill Definition


Weather Definition


00:00 4.5 LegendMM LegendMM LegendMM 29 16   98.17     LegendNANA
01:00 3.8 LegendMM LegendMM LegendMM 29 17   98.22     LegendNANA
02:00 2.6 LegendMM LegendMM LegendMM 30 18   98.21     LegendNANA
03:00 2.2 LegendMM LegendMM LegendMM 28 12   98.32     LegendNANA
04:00 2.0 LegendMM LegendMM LegendMM 28 9   98.47     LegendNANA
05:00 1.8 LegendMM LegendMM LegendMM 29 13   98.56     LegendNANA
06:00 1.6 LegendMM LegendMM LegendMM 29 16   98.63     LegendNANA
07:00 1.6 LegendMM LegendMM LegendMM 29 12   98.68     LegendNANA
08:00 2.3 LegendMM LegendMM LegendMM 29 12   98.73     LegendNANA
09:00 3.1 LegendMM LegendMM LegendMM 30 15   98.83     LegendNANA
10:00 4.0 LegendMM LegendMM LegendMM 32 16   98.86     LegendNANA
11:00 4.7 LegendMM LegendMM LegendMM 33 14   98.90     LegendNANA
12:00 4.8 LegendMM LegendMM LegendMM 33 13   98.93     LegendNANA
13:00 5.2 LegendMM LegendMM LegendMM 34 10   98.95     LegendNANA
14:00 5.6 LegendMM LegendMM LegendMM 36 9   99.00     LegendNANA
15:00 5.6 LegendMM LegendMM LegendMM 1 6   99.02     LegendNANA
16:00 5.3 LegendMM LegendMM LegendMM 1 9   99.05     LegendNANA
17:00 5.4 LegendMM LegendMM LegendMM 1 6   99.06     LegendNANA
18:00 4.8 LegendMM LegendMM LegendMM 33 9   99.07     LegendNANA
19:00 4.5 LegendMM LegendMM LegendMM 32 5   99.15     LegendNANA
20:00 4.1 LegendMM LegendMM LegendMM 33 8   99.18     LegendNANA
21:00 3.9 LegendMM LegendMM LegendMM 31 9   99.24     LegendNANA
22:00 3.6 LegendMM LegendMM LegendMM 32 8   99.25     LegendNANA
23:00 3.5 LegendMM LegendMM LegendMM 33 8   99.28     LegendNANA

Notes on Data Quality.

Legend

  • E = Estimated
  • M = Missing
  • NA = Not Available*
  • [empty] = Indicates an unobserved value
Date modified: